English version Home page |
Updated on May 5, 2012 |
プロフィール
|
軌道要素Epoch 2001 May 11.0 TT = JDT 2452040.5 T 2001 May 1.96281 TT MPC q 1.6937550 (2000.0) P Q n 0.13975037 Peri. 6.71192 -0.11326004 -0.99148750 a 3.6776247 Node 89.80527 +0.90856654 -0.12951365 e 0.5394432 Incl. 3.68231 +0.40209328 +0.01336969 P 7.05 From 108 observations 1963 Nov. 22-2008 Mar. 23, mean residual 0".7. Nongravitational parameters A1 = +0.33, A2 = -0.0028.
|
星図
|
光度変化m1 = 14.0 + 5 logΔ + 10.0 log r
|
軌道要素はM.P.E.C. 2012-J16に掲載されたものです。
|